ARIANE 5 R/B, 41030

Orbit data source: Space-Track

ARIANE 5 R/B, 41030 is space debris in HEO originally from a launch on Tue, 10 Nov 2015 UTC launched from the French Guiana (FRGUI). Debris objects in space refer to the collection of defunct objects orbiting the Earth. Examples of debris include non-operational satellites, rocket bodies, and fragments generated from explosions, collisions, or faulty payload assembly.

Loading next visibility...
Identifier
41030, 2015-065C
Orbit
HEO
Country
Flag of FRFR
Related business
Manufacturer
Airbus Safran
Mission
Spacecraft
Bus & Motor
ESC-A, Unknown motor
Mass
~5,000 kg wet, ~5,000 kg dry
Launch date (UTC)
2015-11-10 (11 years ago)
Launch vehicle
Unknown
Launch site
French Guiana (FRGUI)
Object type
Payload
Rocket body
Debris
Shape & HBR
Cyl + 1 Nozzle, 3.5 m
Radar Cross Section
41.627 m², Large (>1 m²)

Expand to show TLE details & history
Last TLE update: 22 hours ago

TLE from 22 hours ago
0 ARIANE 5 R/B
1 41030U 15065C   26145.82191151  .00011610  00000-0  12502-2 0  9992
2 41030   4.5130 292.4391 7056834 319.6871   5.1723  2.58916752 92151
Epoch: 2026-05-25T19:43Z
TLE epoch observation values (Epoch: 2026-05-25T19:43:33.154Z)
Latitude
-0.00017°
Longitude
112.95008°
Altitude
909.639 km
Speed
9.57 km/s
True Right ascension
19h 28m 58s
True Declination
0° 00' 01"
Sunlit
Object was in full shadow at epoch
Visualization orbit readout
Latitude
Unknown
Longitude
Unknown
Altitude
Unknown
Speed
Unknown
Apparent Right ascension
Unknown
Apparent Declination
Unknown
Sunlit
N/A
Visualization observer readout
Local Sidereal Time
03:23:24
Azimuth
Unknown
Elevation
Unknown
Doppler factor
Unknown
Orbital elements
Apogee altitude
31,842.676 km
Perigee altitude
216.885 km
Semi-major axis
22,407.918 km
Eccentricity
0.70568
Inclination
4.513°
RAAN
292.4391°
Arg. of periapsis
319.6871°
True anomaly
39.53332°
Mean anomaly
5.1723°
Eccentric anomaly
16.98054°
Mean motion
0.64705 °/min
Orbital period
556.37 mins
BSTAR
0.0012502
Loading maneuver chart data...
Computing Atmospheric mass density...
Loading historical data...
Loading historical data...
Loading historical data...
Loading historical data...
Loading historical data...
Loading historical data...
Loading historical data...
Other satellites on launch #65 in the year 2015 (2015-11-10 UTC)

Documentation

Showing up to 5 results
|